Погода в Реддинге

США     40°35′06″N   122°23′33″W
темп.,
°C
ветер,
м/с
пор.,
м/с
влажн.,
%
обл.,
%
осадки,
мм/ч
давл.,
гПа
погр.,
м
19 апреля, пн
пн1923:00+17ссз2242100 0.0 101825
02:00+14зсз2251100 0.0 101823
05:00+13сз225520 0.0 101826
08:00+16сз125139 0.0 101895
11:00+25вюв2232100 0.0 1017899
14:00+28юв332441 0.0 10151700
17:00+28ююв34224 0.0 10121892
20:00+19з35384 0.0 101376
20 апреля, вт
вт2023:00+14зсз33432 0.0 101459
02:00+12сз33470 0.0 101464
05:00+10сз33515 0.0 101453
08:00+14сз23495 0.0 1013152
11:00+22ссв46326 0.0 10112004
14:00+20с7104130 0.3 10101749
17:00+22ссв5929100 0.5 10102364
20:00+16сз21375 0.0 100826
21 апреля, ср
ср2123:00+14сз33340 0.0 101052
02:00+12сз33440 0.0 101154
05:00+11ссз33500 0.0 101250
08:00+15ссз24450 0.0 1012142
11:00+22ссв69200 0.0 10111780
14:00+26св57142 0.0 10092854
17:00+26св57150 0.0 10073176
20:00+19ссз37290 0.0 1007116
22 апреля, чт
чт2223:00+15сз33300 0.0 100934
02:00+13сз22360 0.0 101034
05:00+12сз224031 0.0 101125
08:00+15ссз1241100 0.0 101286
11:00+24вюв2126100 0.0 1010849
14:00+27юв332021 0.0 10081742
17:00+28ююв44192 0.0 10061802
20:00+19з2240100 0.0 100718
23 апреля, пт
пт2323:00+15сз22495 0.0 101022
02:00+13сз215730 0.0 101116
05:00+11ссз11625 0.0 101214
08:00+14всв11522 0.0 1013182
11:00+21юв213778 0.0 1012816
14:00+25ююв322944 0.0 10101528
17:00+25ююв4428100 0.0 10081474
20:00+18зюз1147100 0.0 100812